RH
21 21 23 22 20 20 20 18 20 24 25 26 25 23 18 25 24 23 22 20 17 14 12 10 9 8 8 7 6 7 6 7 6 6 6 6 6 6 6 9 10 11 13 16
23 23 23 22 22 22 25 28 30 31 33 32 29 26 23 23 22 21 18 15 12 10 8 8 8 7 7 8 8 8 8 8 8 8 8 6 6 6 6 7 8 10 12 15
23 28 26 25 24 26 31 34 34 33 31 28 26 23 21 19 17 14 11 10 10 11 12 15 16 18 20 22 23 26 28 25 22 20 14 11 10 8 8 10 10 10 11 11
32 31 34 34 34 35 35 35 33 32 28 25 26 27 18 15 12 10 12 21 26 24 22 23 25 38 50 55 55 54 53 54 53 52 51 48 30 17 17 16 17 19 18 14
41 41 40 39 37 35 33 32 28 25 25 31 23 32 14 9 9 13 23 32 38 42 46 48 61 63 50 56 58 59 53 51 52 51 52 55 58 58 44 35 26 22 21 22
45 42 40 38 37 34 30 28 30 34 42 62 37 42 16 16 18 30 38 48 51 57 68 71 69 53 40 65 62 39 52 59 56 62 73 76 75 79 75 69 62 51 33 23
44 42 40 37 34 31 31 34 38 59 77 64 72 84 21 29 33 38 51 58 66 75 75 70 36 48 54 38 21 22 36 58 71 69 71 71 81 79 71 63 60 57 56 50
33 34 32 31 34 42 48 50 54 59 77 84 69 67 31 36 40 50 59 62 72 73 70 50 26 29 20 16 12 15 30 40 76 100 81 75 79 75 72 68 50 44 49 49
32 44 43 50 53 59 65 72 78 84 98 99 62 46 34 36 48 52 62 70 72 72 51 25 20 14 11 9 11 29 56 77 81 100 73 71 72 71 69 56 42 42 41 40
37 45 60 69 71 75 87 82 98 94 98 96 69 61 38 46 50 50 55 78 76 53 28 19 12 10 7 9 18 51 77 63 87 76 47 56 64 55 52 53 53 52 50 49
54 52 73 70 65 74 82 89 94 90 98 96 98 52 40 48 46 40 45 74 58 34 22 14 9 7 7 9 22 74 72 94 86 37 45 43 47 50 48 45 43 42 43 43
64 70 75 70 76 84 100 100 95 91 88 98 95 59 41 41 38 37 44 67 36 27 20 12 7 7 8 10 41 72 69 74 59 34 39 35 38 37 35 34 36 39 40 37
71 73 73 82 82 84 95 94 100 98 96 98 92 47 44 40 36 40 51 42 30 23 16 11 7 8 10 11 44 63 73 62 53 40 40 37 34 38 49 69 73 83 86 74
68 70 69 61 70 80 92 80 85 100 99 83 63 29 30 36 36 43 52 29 23 19 15 8 7 10 13 13 11 40 32 42 64 63 74 73 75 90 100 98 100 100 100 90
78 82 68 64 61 69 66 72 84 92 72 90 32 36 25 30 42 45 29 22 20 16 10 6 8 12 14 14 14 12 19 18 17 35 56 66 69 71 70 68 82 77 86 71
72 70 72 45 36 42 46 42 52 61 68 72 50 29 34 37 32 27 26 21 16 12 6 7 11 14 16 16 16 16 15 14 13 12 12 13 25 45 49 54 59 64 66 61
83 96 98 91 75 76 47 20 20 23 27 22 40 23 30 26 24 21 20 18 12 7 5 8 11 14 16 17 18 18 18 18 18 18 17 16 14 13 17 25 38 39 47 57
78 92 100 94 90 84 21 24 21 21 20 23 18 14 18 17 18 18 17 10 9 5 5 8 11 13 15 17 19 20 20 21 21 21 21 21 20 20 19 17 15 16 22 40
58 77 98 95 100 34 12 12 17 22 12 14 11 13 13 15 14 16 12 8 5 4 5 7 10 12 14 16 18 20 22 23 23 24 24 25 25 24 24 23 22 21 20 18
80 84 98 98 98 84 11 14 15 17 10 10 12 16 10 8 8 9 7 5 4 4 6 7 9 11 12 14 16 18 20 22 24 25 26 26 27 27 27 28 27 27 26 25
81 100 99 100 90 44 10 8 12 17 8 7 9 9 8 7 7 6 5 4 4 5 6 7 8 9 11 12 13 15 16 19 21 23 24 24 24 24 24 25 26 28 29 29
29 46 73 100 96 55 5 8 11 9 9 8 8 8 7 6 5 4 4 4 4 5 6 7 7 8 9 10 11 12 13 14 16 18 20 21 21 20 20 19 20 21 22 24
28 19 22 22 13 10 10 10 10 9 8 9 9 8 6 5 5 5 4 4 5 5 5 6 6 7 8 8 9 9 10 10 11 12 13 15 16 17 18 19 18 17 17 16
14 16 18 14 7 8 11 10 10 10 10 11 9 7 6 5 5 5 5 5 5 5 5 6 6 6 6 7 7 8 8 8 8 8 9 9 10 11 11 12 14 15 16 17
18 16 16 14 13 17 12 10 10 12 12 10 9 8 7 6 6 5 5 6 6 6 5 5 6 6 6 6 6 7 7 7 7 7 8 8 8 9 9 10 10 10 11 11
18 17 18 16 21 26 23 14 11 9 9 10 10 9 8 7 7 7 7 7 7 7 7 6 5 5 5 5 6 6 6 6 6 7 8 8 8 10 11 12 12 13 14 15
Wind_Speed
16 14 13 13 12 7 7 8 8 9 11 13 17 19 17 22 23 25 28 30 31 31 31 33 35 35 35 37 39 41 42 43 46 48 49 50 51 50 51 52 52 52 53 53
15 12 12 12 10 8 6 6 7 9 12 17 21 24 23 25 27 27 27 27 28 28 29 31 33 35 37 38 40 41 44 45 46 49 50 51 52 52 54 53 53 53 54 54
14 13 11 10 8 6 6 6 9 11 15 18 24 29 24 20 21 22 20 24 25 25 25 26 28 30 33 35 38 41 43 47 50 53 55 55 54 54 53 51 50 50 53 55
8 11 9 8 6 5 7 9 10 12 12 8 14 9 20 25 23 24 23 16 17 21 24 27 29 28 28 29 32 34 36 38 42 47 54 60 61 59 56 52 50 48 48 51
6 8 6 5 5 5 6 7 9 11 13 14 14 9 6 15 18 14 14 16 20 24 26 24 20 20 23 25 27 31 35 37 43 49 52 54 57 58 58 55 53 53 52 50
5 8 7 7 6 6 5 7 10 13 11 4 7 8 7 11 10 11 12 17 22 21 17 14 18 22 25 24 28 34 36 38 40 39 37 40 41 41 43 44 46 50 53 52
6 6 6 6 6 6 5 5 4 4 2 4 4 8 16 11 10 10 13 17 17 12 12 15 18 21 23 25 29 33 37 40 38 28 31 32 29 27 27 28 32 38 41 46
7 5 8 8 7 5 5 6 3 5 2 5 8 9 3 1 5 9 13 13 10 13 14 16 19 23 25 28 34 40 43 41 38 30 25 22 19 18 19 23 26 27 30 34
7 5 9 6 7 5 3 4 4 1 3 4 6 10 15 12 5 9 11 9 11 14 15 17 19 21 25 32 37 42 46 42 28 25 17 11 14 18 22 24 25 25 24 26
5 4 9 8 8 8 6 5 1 1 1 4 7 11 10 3 6 8 12 9 12 14 16 17 19 23 28 31 37 43 37 19 16 17 11 9 8 12 14 15 14 14 15 17
4 5 3 8 5 4 7 5 5 3 3 3 4 8 3 2 6 12 14 11 13 14 16 17 20 24 26 30 35 38 22 16 11 9 7 7 7 8 8 7 7 8 10 10
5 5 5 4 6 7 8 9 10 6 6 8 4 16 4 3 11 18 15 10 12 14 16 17 19 21 23 27 31 33 29 13 9 8 7 7 8 8 9 9 8 8 8 7
4 3 2 2 8 15 16 17 18 15 11 13 5 11 9 9 19 17 17 10 12 13 14 16 16 18 21 24 26 28 31 25 11 8 8 8 8 9 10 11 11 11 12 12
7 9 10 8 5 7 11 12 15 21 14 14 30 33 19 19 18 15 11 13 11 13 14 13 14 16 19 19 21 23 25 26 27 20 14 13 12 10 11 11 10 11 12 9
9 11 12 17 20 24 28 29 27 28 32 25 29 31 15 20 15 8 12 11 11 13 13 12 11 13 15 17 18 19 19 21 21 21 22 21 20 20 19 15 12 10 11 8
15 14 16 27 23 26 32 36 38 40 41 46 44 39 18 2 6 11 14 13 11 11 11 10 10 10 11 13 15 15 16 17 17 16 17 16 16 16 17 18 18 17 13 10
14 10 9 11 9 19 28 23 30 34 36 33 43 10 15 17 17 16 15 15 12 9 8 8 8 8 9 10 11 11 12 13 13 14 14 14 13 13 13 13 13 14 15 13
19 13 11 16 18 4 5 6 7 9 10 17 24 15 12 14 13 12 14 12 11 9 8 8 8 7 7 9 10 11 10 10 10 11 12 12 13 13 12 12 11 11 11 11
22 18 8 7 9 26 9 13 21 19 18 15 16 11 12 12 12 11 11 9 8 9 10 10 10 9 9 10 11 12 12 12 12 12 12 11 11 11 12 12 12 12 12 13
22 21 15 4 5 5 4 4 3 7 12 3 4 6 8 11 10 10 9 10 11 11 12 12 12 12 12 12 13 13 13 14 13 13 13 13 14 14 14 14 14 15 15 15
15 18 29 21 11 17 9 7 6 4 3 6 11 10 9 10 9 9 12 12 12 14 15 15 15 15 15 15 15 16 16 16 16 16 16 16 17 17 17 18 18 18 17 17
8 8 11 21 11 12 3 4 7 14 17 16 14 14 14 13 12 13 14 15 17 18 19 19 18 19 19 18 19 20 21 19 20 20 20 20 21 21 21 21 21 21 21 22
13 13 9 13 9 12 16 21 19 21 25 23 22 21 20 17 16 18 18 20 20 22 23 24 22 21 22 24 24 22 25 23 23 24 24 24 24 24 25 25 25 25 25 25
23 23 29 29 19 9 12 25 32 32 30 25 21 21 23 22 21 21 22 23 25 27 27 28 28 26 24 29 28 26 27 26 26 27 28 27 27 27 27 27 27 27 26 26
29 30 34 41 31 35 27 19 14 16 19 20 21 23 23 25 24 26 26 27 29 30 30 31 30 30 29 32 32 32 31 30 29 30 29 29 29 28 29 29 29 29 30 29
42 37 36 36 25 32 27 26 28 28 29 30 31 30 30 31 32 33 34 33 32 33 32 33 34 34 32 33 33 34 34 32 33 33 31 31 31 30 31 30 31 32 31 31
Wind_Direction
170 174 170 177 187 195 213 218 234 245 259 270 272 273 263 270 278 281 283 284 284 281 278 278 278 278 278 280 279 279 277 275 275 273 270 268 266 264 261 260 259 259 258 258
168 167 170 178 186 194 200 216 243 270 281 286 285 283 281 281 283 281 276 275 275 275 276 278 280 284 286 285 284 284 283 281 277 274 271 269 266 263 261 259 258 258 258 257
169 159 165 175 186 199 221 252 272 283 289 290 293 293 289 286 281 275 271 280 276 276 279 281 284 286 288 291 290 288 287 285 282 279 275 270 266 263 259 257 256 256 257 258
147 159 165 182 199 227 257 265 272 282 292 285 297 283 284 288 281 276 277 274 281 284 285 289 293 299 299 296 296 298 297 295 291 284 277 272 268 264 261 258 255 253 252 253
151 174 194 210 229 234 254 259 273 282 287 294 285 268 288 285 268 257 268 285 294 295 299 298 299 298 307 308 308 304 302 301 295 285 276 271 266 265 266 263 260 257 254 250
173 189 194 212 219 237 253 276 293 290 288 282 258 240 281 268 271 258 280 294 298 301 302 307 313 315 316 309 314 317 308 305 311 295 287 276 271 268 266 267 267 264 257 253
170 184 203 210 225 241 254 279 310 335 359 227 287 268 261 270 244 277 295 300 301 311 312 316 317 323 331 327 321 323 324 327 327 307 298 288 278 274 272 271 268 264 261 255
185 190 204 216 223 233 236 224 210 218 254 286 277 243 254 248 245 286 302 300 315 323 320 319 328 328 329 329 333 334 329 322 318 314 309 291 278 276 277 286 281 273 268 258
189 190 201 210 221 225 245 191 215 226 304 291 263 280 288 278 242 314 319 322 317 322 321 329 327 327 332 344 341 335 327 319 309 308 323 303 276 276 288 292 288 282 274 265
199 177 207 215 232 247 224 208 178 234 18 292 288 282 259 219 322 336 337 319 313 321 325 324 330 337 350 346 344 340 334 344 326 328 346 342 316 304 305 310 306 304 302 293
221 229 222 226 241 243 222 216 222 225 181 198 304 281 224 287 332 340 331 310 311 320 319 333 341 346 349 347 347 348 351 353 355 359 356 344 330 322 315 311 325 330 323 313
228 247 245 221 237 239 245 249 239 205 192 222 249 278 202 320 336 329 319 302 305 317 329 336 341 345 346 350 352 357 2 19 20 15 359 344 338 331 324 324 324 326 326 325
233 263 264 250 245 241 245 251 243 242 245 229 194 261 228 302 317 320 309 294 316 325 325 333 338 339 349 353 0 6 12 20 36 34 18 356 332 328 327 328 326 329 323 314
257 245 236 240 268 259 252 267 255 232 231 237 245 275 273 282 296 293 278 301 314 316 321 327 332 344 350 352 4 9 15 25 26 30 26 16 359 347 335 331 319 322 309 304
264 270 268 269 269 270 269 264 252 243 242 238 268 274 284 296 287 262 285 298 307 307 314 325 336 349 347 351 360 7 10 23 31 33 33 30 27 23 20 15 358 342 319 321
260 273 291 289 286 268 267 261 253 251 252 255 264 277 296 200 255 283 285 294 297 300 309 319 331 339 345 349 352 0 6 16 22 30 35 37 35 32 29 26 24 16 2 345
259 274 300 280 294 291 283 271 253 254 255 258 254 265 269 278 284 277 282 288 291 292 292 299 309 330 338 339 343 349 358 5 9 14 20 25 26 23 18 17 19 18 18 17
256 260 262 285 304 248 269 280 251 258 255 251 260 272 273 271 273 279 276 286 286 286 285 286 295 306 319 322 325 332 337 344 353 358 1 5 10 10 7 2 359 357 353 351
249 246 255 270 289 289 302 265 254 263 274 269 266 265 270 271 278 274 281 279 273 275 275 276 285 298 303 307 312 318 326 331 336 342 345 345 347 347 347 346 345 346 345 343
228 231 223 264 283 257 292 294 295 292 305 327 263 258 265 269 275 265 267 259 262 269 271 274 280 286 290 299 304 310 314 314 315 317 319 325 330 331 331 331 332 334 335 335
208 224 227 234 260 276 273 269 276 265 311 323 316 298 283 278 271 255 254 257 258 259 262 268 273 279 282 288 294 296 296 297 301 305 310 314 317 318 321 324 324 325 327 328
241 223 212 211 233 269 173 232 272 300 298 306 305 296 284 276 271 263 260 260 262 264 267 270 274 278 284 286 286 287 289 297 299 302 304 306 307 311 313 313 315 319 322 325
249 248 253 229 266 284 293 298 301 298 299 298 292 289 287 283 277 271 269 268 267 268 269 273 275 280 284 283 282 285 287 292 295 298 298 300 302 304 306 309 312 315 316 317
267 272 264 277 297 291 284 293 294 291 289 287 285 280 278 279 275 272 274 276 277 278 280 279 281 280 281 282 285 286 287 292 293 293 293 296 298 300 302 303 306 307 307 308
268 270 274 283 299 304 301 287 278 288 278 277 280 282 281 278 277 274 273 278 278 278 277 279 281 282 283 282 286 287 288 290 291 289 291 294 296 298 300 302 304 305 305 306
277 279 278 290 312 302 295 283 274 272 271 276 277 277 278 277 274 273 273 273 275 276 279 281 281 282 283 283 284 286 288 290 288 289 291 293 298 300 300 301 303 302 303 304